Regional Weather Roundup
Issued by NWS Boston, MA

Home | Current Version | Previous Version | Text Only | Print | Product List | Glossary On
Versions: 1 2 3 4 5 6 7 8 9 10 11 12 13 14 15 16 17 18 19 20 21 22 23 24 25 26 27
000
ASUS41 KBOX 240510
RWRBOX

REGIONAL WEATHER ROUNDUP
NATIONAL WEATHER SERVICE TAUNTON MA
100 AM EDT THU APR 24 2014

NOTE:  "FAIR" INDICATES FEW OR NO CLOUDS BELOW 12,000 FEET WITH NO
SIGNIFICANT WEATHER AND/OR OBSTRUCTIONS TO VISIBILITY.  THE FOLLOWING
OBSERVATION LOCATIONS DO NOT REPORT PRESENT WEATHER...PROVINCETOWN...
SMITHFIELD...BLOCK ISLAND...KEENE...AND OXFORD.

MAZALL-240600-
EASTERN MASSACHUSETTS

CITY           SKY/WX    TMP DP  RH WIND       PRES   REMARKS
BOSTON         PTCLDY    47  29  49 NW23G32   29.62R
BEVERLY        CLEAR     45  30  55 NW21G28   29.58S
LAWRENCE       CLOUDY    46  29  51 NW14G31   29.62R
BEDFORD        CLOUDY    45  30  55 NW18G29   29.62S
BLUE HILL        N/A     43  30  60 NW21G33   29.59R
NORWOOD        MOCLDY    46  30  53 NW18G26   29.62S
MARSHFIELD       N/A    N/A N/A N/A MISG        N/A
PLYMOUTH       CLOUDY    46  30  53 NW21G33   29.59R
TAUNTON        MOCLDY    48  30  49 NW15G25   29.61S
NEW BEDFORD    MOCLDY    47  31  53 NW12G23   29.61R
$$

MAZALL-240600-
CAPE COD AND THE ISLANDS

CITY           SKY/WX    TMP DP  RH WIND       PRES   REMARKS
FALMOUTH       MOCLDY    46  32  57 NW17G35   29.58R
HYANNIS        CLOUDY    48  34  58 NW15G31   29.54R
CHATHAM        CLOUDY    46  35  65 NW15G31   29.55R
PROVINCETOWN   CLOUDY    45  36  70 MISG      29.57R
NANTUCKET      CLOUDY    48  33  56 NW17G32   29.56R
MARTHAS VNYRD  CLEAR     48  31  51 NW24G33   29.59R
$$

MAZALL-240600-
CENTRAL AND WESTERN MASSACHUSETTS

CITY           SKY/WX    TMP DP  RH WIND       PRES   REMARKS
WORCESTER      MOCLDY    42  27  55 NW20G32   29.65R
FITCHBURG      MOCLDY    45  28  51 NW13G25   29.66R
ORANGE         PTCLDY    43  26  51 NW20G38   29.69R
SPRINGFIELD    CLOUDY    46  27  48 NW22G30   29.70R
WESTFIELD      PTCLDY    45  25  45 N16G25    29.72R
NORTH ADAMS    PTCLDY    42  21  43 W9G21     29.75S
PITTSFIELD     CLEAR     36  27  69 W13G21    29.74R WCI  27
$$

RIZALL-240600-
RHODE ISLAND

CITY           SKY/WX    TMP DP  RH WIND       PRES   REMARKS
PROVIDENCE     CLOUDY    47  29  49 NW13G28   29.65R
NEWPORT        MOCLDY    46  31  55 NW17G26   29.63R
BLOCK ISLAND   MOCLDY    46  30  53 NW12G24   29.67R
SMITHFIELD     CLOUDY    45  27  49 NW13G23   29.66R
WESTERLY       CLOUDY    47  31  53 NW8       29.69R
$$

CTZALL-240600-
CONNECTICUT

CITY           SKY/WX    TMP DP  RH WIND       PRES   REMARKS
BRADLEY INTL   PTCLDY    44  28  53 NW16G30   29.72R
HARTFORD       MOCLDY    45  28  51 NW12G26   29.74R
BRIDGEPORT     CLEAR     47  25  42 N14G30    29.76S
DANBURY        CLEAR     44  23  43 NW10G20   29.79S
GROTON         CLOUDY    47  32  56 NW16G24   29.69R
NEW HAVEN      CLEAR     47  27  45 NW12G28   29.75S
CHESTER        CLOUDY    45  30  57 NW21G31   29.71S
MERIDEN        CLEAR     45  27  49 NW16G24   29.75R
WILLIMANTIC    CLOUDY    47  27  45 NW13G21   29.70R
OXFORD         CLEAR     43  23  45 NW17G25   29.77S
$$

MEZ002-015-021-024-NHZ003-005-008-011-012-014-VTZ005-008-240600-
NORTHERN NEW ENGLAND

CITY           SKY/WX    TMP DP  RH WIND       PRES   REMARKS
PORTLAND ME    CLOUDY    45  31  58 NW23G30   29.54S
BANGOR ME      LGT RAIN  39  34  82 N13       29.48R WCI  31
CONCORD NH     CLOUDY    44  29  55 NW10G24   29.63R
MANCHESTER NH  MOCLDY    46  28  49 NW23G32   29.62R
NASHUA NH      CLOUDY    46  28  49 NW22G31   29.64R
PORTSMOUTH NH  MOCLDY    45  30  55 NW17G26   29.56R
JAFFREY NH     CLOUDY    41  26  55 NW10G22   29.66R
KEENE NH       MOCLDY    43  25  49 NW14G22   29.70R
BURLINGTON VT  MOCLDY    42  21  43 N18       29.79R
MT. WASHINGTON SNOW      16  16 100 N61G77      N/A  VSB 0   WCI -10
$$

NYZ052-076-240600-
EASTERN NEW YORK

CITY           SKY/WX    TMP DP  RH WIND       PRES   REMARKS
ALBANY         PTCLDY    40  29  64 W12       29.82R
NEW YORK CITY  PTCLDY    45  30  55 NW18G31   29.84R
$$

ANZALL-240600-
MARINE OBSERVATIONS

STATION/POSITION TIME  TEMP    WIND        PRES    VSBY  WAVE
                       AIR SEA DIR/SP/G                  HT/PER
                 (UTC) (F)     (DEG/KT/KT) (MB)    (MI)  (FT/S)
BOSTON BUOY      0450   45 42  310/ 21/ 25 1001.3R         5/ 5
BUZZARDS BAY     0400          320/ 27/ 31 1003.3R
NANTUCKET SOUND  0450   48 46  320/ 23/ 29 1000.3R         4/ 5
MASS BAY-STELLWA 0404   45 40  310/ 19/ 25  999.7R  1 7/8  3/ 4
ISLE OF SHOALS   0400   46     310/ 22/ 25  999.9R
S OF BLOCK IS    0425      43                N/A           6/ 5
$$

......................KEY.........................
  SKY/WX - SKY CONDITION/PRESENT WEATHER
  TMP    - TEMPERATURE IN FAHRENHEIT
  DWPT   - DEWPOINT IN FAHRENHEIT
  RH     - RELATIVE HUMIDITY IN PERCENT
  WIND   - DIRECTION AND SPEED IN MPH
  PRES   - MEAN SEA LEVEL PRESSURE IN INCHES OF HG
  WCI    - WIND CHILL INDEX
  VSB    - VISIBILITY IN MILES
  HX     - HEAT INDEX
  TC     - TEMPERATURE IN CELSIUS
  VRB    - VARIABLE WIND DIRECTION
  N/A    - NOT AVAILABLE



USA.gov is the U.S. government's official web portal to all federal, state and local government web resources and services.